Tracking 25734 objects as of 26-May-2022
HD Live streaming from Space Station
objects crossing your sky now

COSMOS 2251 DEB

Track COSMOS 2251 DEB now!
10-day predictions


NORAD ID: 35474
Int'l Code: 1993-036ALU
Perigee: 696.8 km
Apogee: 704.0 km
Inclination: 74.0 °
Period: 98.6 minutes
Semi major axis: 7071 km
RCS: 0.0059 m2 (small)
Launch date: June 16, 1993
Source: Commonwealth of Independent States (former USSR) (CIS)
Launch site: PLESETSK MISSILE AND SPACE COMPLEX (PKMTR)

Note: This is SATELLITE DEBRIS
aabbcc
Your satellite tracking list
Your tracking list is empty




NASA's NSSDC Master Catalog

Two Line Element Set (TLE):
1 35474U 93036ALU 22146.06447171  .00005634  00000-0  11798-2 0  9995
2 35474  74.0001 269.5192 0005131  84.8242  30.9448 14.59967882692823
Source of the keplerian elements: AFSPC